| time (UTC) | temp C | wind direction | speed KPH | gust KPH | rain 1hr cm | rain 24hr cm | rain mn cm | humidity % | barometer mb |
| 20260505062453 | 12 | 269 | 0.0 | 0.0 | 0.00 | 0.00 | 0.00 | 87 | 1014.8 |
| 20260505060950 | 12 | 269 | 0.0 | 3.2 | 0.00 | 0.00 | 0.00 | 86 | 1014.9 |
| 20260505055447 | 12 | 321 | 0.0 | 4.8 | 0.00 | 0.00 | 0.00 | 86 | 1014.9 |
| 20260505053948 | 12 | 264 | 0.0 | 3.2 | 0.00 | 0.00 | 0.00 | 86 | 1015.0 |
| 20260505052446 | 12 | 298 | 0.0 | 8.0 | 0.00 | 0.00 | 0.00 | 86 | 1015.0 |
| 20260505050943 | 12 | 335 | 0.0 | 0.0 | 0.00 | 0.00 | 0.00 | 85 | 1014.9 |
| 20260505040935 | 12 | 335 | 0.0 | 0.0 | 0.00 | 0.00 | 0.00 | 84 | 1014.4 |
| 20260505040118 | 12 | 335 | 0.0 | 1.6 | 0.00 | 0.00 | 0.00 | 84 | 1014.1 |
| 20260505033925 | 12 | 335 | 0.0 | 1.6 | 0.00 | 0.00 | 0.00 | 84 | 1014.1 |
| 20260505032416 | 12 | 252 | 0.0 | 3.2 | 0.00 | 0.00 | 0.00 | 84 | 1014.0 |
| 20260505030915 | 12 | 280 | 0.0 | 3.2 | 0.00 | 0.00 | 0.00 | 85 | 1013.9 |
| 20260505025406 | 12 | 282 | 0.0 | 0.0 | 0.00 | 0.00 | 0.00 | 84 | 1013.7 |
| 20260505023904 | 12 | 282 | 0.0 | 0.0 | 0.00 | 0.00 | 0.00 | 83 | 1013.6 |
| 20260505022405 | 13 | 282 | 0.0 | 1.6 | 0.00 | 0.00 | 0.00 | 81 | 1013.5 |
| 20260505020901 | 13 | 293 | 0.0 | 6.4 | 0.00 | 0.00 | 0.00 | 79 | 1013.5 |
| 20260505015400 | 14 | 248 | 1.6 | 8.0 | 0.00 | 0.00 | 0.00 | 76 | 1013.5 |
| 20260505014553 | 15 | 258 | 3.2 | 6.4 | 0.00 | 0.00 | 0.00 | 73 | 1013.4 |
| 20260505012356 | 16 | 329 | 1.6 | 8.0 | 0.00 | 0.00 | 0.00 | 71 | 1013.7 |
| 20260505010854 | 16 | 259 | 3.2 | 9.7 | 0.00 | 0.00 | 0.00 | 71 | 1013.8 |
| 20260505010047 | 17 | 274 | 3.2 | 6.4 | 0.00 | 0.00 | 0.00 | 69 | 1013.9 |
| 20260505003845 | 17 | 213 | 3.2 | 11.3 | 0.00 | 0.00 | 0.00 | 70 | 1014.0 |
| 20260505002344 | 16 | 288 | 1.6 | 12.9 | 0.00 | 0.00 | 0.00 | 69 | 1014.0 |
| 20260505000842 | 16 | 276 | 3.2 | 14.5 | 0.00 | 0.00 | 0.00 | 70 | 1013.9 |
| 20260504235341 | 16 | 259 | 1.6 | 8.0 | 0.00 | 0.00 | 0.00 | 71 | 1014.1 |
| 20260504233837 | 16 | 288 | 3.2 | 12.9 | 0.00 | 0.00 | 0.00 | 70 | 1013.9 |
| 20260504232336 | 17 | 60 | 4.8 | 11.3 | 0.00 | 0.00 | 0.00 | 71 | 1014.0 |
| 20260504230835 | 16 | 55 | 1.6 | 11.3 | 0.00 | 0.00 | 0.00 | 72 | 1013.9 |
| 20260504225335 | 16 | 267 | 3.2 | 11.3 | 0.00 | 0.00 | 0.00 | 72 | 1014.1 |
| 20260504223831 | 16 | 293 | 1.6 | 8.0 | 0.00 | 0.00 | 0.00 | 73 | 1014.2 |
| 20260504222330 | 16 | 257 | 1.6 | 9.7 | 0.00 | 0.00 | 0.00 | 76 | 1014.4 |
| 20260504220827 | 16 | 7 | 3.2 | 19.3 | 0.00 | 0.00 | 0.00 | 75 | 1014.5 |
| 20260504215326 | 16 | 281 | 3.2 | 12.9 | 0.00 | 0.00 | 0.00 | 75 | 1014.6 |
| 20260504213825 | 16 | 92 | 1.6 | 11.3 | 0.00 | 0.00 | 0.00 | 76 | 1014.6 |
| 20260504212323 | 16 | 217 | 4.8 | 11.3 | 0.00 | 0.00 | 0.00 | 75 | 1014.6 |
| 20260504210821 | 16 | 27 | 1.6 | 11.3 | 0.00 | 0.00 | 0.00 | 76 | 1014.5 |
| 20260504205319 | 15 | 237 | 3.2 | 8.0 | 0.00 | 0.00 | 0.00 | 76 | 1014.5 |
| 20260504203817 | 15 | 6 | 3.2 | 14.5 | 0.00 | 0.00 | 0.00 | 76 | 1014.5 |
| 20260504202316 | 15 | 93 | 3.2 | 11.3 | 0.00 | 0.00 | 0.00 | 78 | 1014.6 |
| 20260504200812 | 15 | 259 | 3.2 | 11.3 | 0.00 | 0.00 | 0.00 | 77 | 1014.5 |
| 20260504195311 | 15 | 314 | 0.0 | 8.0 | 0.00 | 0.00 | 0.00 | 79 | 1014.5 |
| 20260504193809 | 15 | 281 | 3.2 | 11.3 | 0.00 | 0.00 | 0.00 | 78 | 1014.3 |
| 20260504192307 | 16 | 2 | 1.6 | 8.0 | 0.00 | 0.00 | 0.00 | 76 | 1014.2 |
| 20260504190806 | 16 | 16 | 1.6 | 6.4 | 0.00 | 0.00 | 0.00 | 77 | 1014.3 |
| 20260504185959 | 15 | 130 | 1.6 | 9.7 | 0.00 | 0.00 | 0.00 | 77 | 1014.4 |
| 20260504183803 | 15 | 232 | 1.6 | 11.3 | 0.00 | 0.00 | 0.00 | 76 | 1014.5 |
| 20260504182300 | 15 | 279 | 1.6 | 8.0 | 0.00 | 0.00 | 0.00 | 77 | 1014.5 |
| 20260504180758 | 15 | 259 | 1.6 | 8.0 | 0.00 | 0.00 | 0.00 | 78 | 1014.4 |
| 20260504175256 | 15 | 161 | 0.0 | 6.4 | 0.00 | 0.00 | 0.00 | 78 | 1014.3 |
| 20260504173754 | 15 | 10 | 0.0 | 4.8 | 0.00 | 0.00 | 0.00 | 78 | 1014.4 |
| 20260504172252 | 15 | 101 | 0.0 | 6.4 | 0.00 | 0.00 | 0.00 | 78 | 1014.3 |
| 20260504171439 | 14 | 15 | 0.0 | 6.4 | 0.00 | 0.00 | 0.00 | 80 | 1014.3 |
| 20260504150738 | 12 | 276 | 0.0 | 0.0 | 0.00 | 0.00 | 0.00 | 87 | 1014.0 |
| 20260504130644 | 11 | 276 | 0.0 | 0.0 | 0.00 | 0.00 | 0.00 | 94 | 1012.9 |
| 20260504110606 | 11 | 276 | 0.0 | 0.0 | 0.00 | 0.00 | 0.00 | 94 | 1012.8 |
| 20260504082003 | 9 | 276 | 0.0 | 0.0 | 0.00 | 0.00 | 0.00 | 95 | 1012.8 |
| 20260504080502 | 8 | 276 | 0.0 | 0.0 | 0.00 | 0.00 | 0.00 | 95 | 1012.8 |
| 20260504080344 | 8 | 276 | 0.0 | 0.0 | 0.00 | 0.00 | 0.00 | 95 | 1012.8 |